2021-014G (47697 NORAD) Tracking and Keplerian Element Data

This shows tracking and keplerian element data for the satellite.

Feedback or suggestion? Click here.




ElementValue
Catalog47697
Name2021-014G
Epoch Orbit387
Epoch Day84.07715031
Epoch Year2021
RAAN63.6433
Inclination63.4004
Eccentricity0.0017529
Argument of Perigee234.6524
Mean Anonmoly125.2867
Mean Motion13.412634
Decay Rate-8.9E-07
L11 47697U 21014G 21084.07715031 -.00000089 00000-0 00000+0 0 9997
L22 47697 63.4004 63.6433 0017529 234.6524 125.2867 13.41263400 3870



Live tracking and technical data element details for 2021-014G (NORAD 47697). 2021-014G can be tracked NOW for your location showing map with azimuth and elevation plus other details from your city location.







IsCatalogInMostPopularTable: catalog: 47697, numindb: 107
Update: records affected: 1



GetName: 47697 2021-014G

Hit Count: updated at: Sun, 11 Jun 2023 01:00:13 GMT